Wind_Speed
4 1 2 5 3 4 4 6 9 6 4 4 7 15 16 17 17 20 19 20 22 22 19 20 21 17 14 12 11 9 7 5 4 3 1 1 3 4 5 6 8 8 9 9
2 4 5 3 1 3 6 9 8 1 3 5 7 19 14 3 5 21 25 23 19 17 18 22 23 21 16 14 13 11 8 7 5 4 3 3 3 3 4 5 6 8 9 10
4 2 4 1 5 7 7 7 3 4 8 9 6 8 4 1 1 1 5 17 19 18 23 26 24 22 18 17 15 13 9 8 6 5 5 5 4 5 5 5 6 6 6 7
5 4 2 4 6 2 5 5 4 7 7 3 3 5 5 6 5 6 9 11 15 17 21 27 24 23 20 18 16 14 11 9 7 7 7 7 6 7 6 6 6 5 6 7
3 4 4 4 2 3 2 3 6 4 4 6 1 1 6 4 3 3 12 17 16 18 21 26 24 22 19 19 17 14 13 12 10 9 9 9 8 8 8 8 7 6 6 6
3 2 2 2 1 2 7 5 8 6 1 2 5 5 6 2 4 3 4 17 19 16 18 21 21 20 20 21 18 17 15 14 13 12 10 10 9 9 10 8 9 8 8 6
5 4 3 0 3 2 3 4 4 3 1 6 4 1 9 2 6 3 4 4 14 13 13 18 20 21 22 22 19 19 17 16 15 13 12 11 11 11 11 10 10 10 9 8
3 5 7 7 2 1 2 1 3 5 3 6 6 6 6 6 10 5 4 2 5 6 12 15 18 20 21 20 20 19 18 17 16 14 13 13 13 13 12 12 11 11 10 10
3 5 2 1 2 1 3 4 1 4 5 5 5 6 4 7 6 5 3 1 4 7 10 13 16 17 16 17 17 17 17 16 14 15 15 14 13 13 13 11 12 12 11 11
3 6 3 3 1 3 3 3 1 0 4 6 4 6 3 5 6 5 2 6 8 8 10 8 7 9 10 11 14 16 16 16 15 16 16 15 14 12 11 12 13 12 12 12
4 5 2 5 7 7 2 3 3 1 4 3 4 4 5 6 7 5 4 6 4 7 12 6 10 12 12 13 12 13 13 13 14 13 14 14 13 10 11 14 13 13 12 13
2 3 5 7 4 5 1 2 6 3 3 3 3 7 6 9 7 10 15 21 15 4 14 12 5 3 4 4 6 8 8 8 11 12 11 15 14 9 11 12 13 12 12 14
4 4 4 4 2 3 2 2 3 2 2 9 7 7 4 10 13 18 18 21 19 12 12 9 5 1 3 5 5 7 10 12 15 17 15 11 9 11 11 13 13 14 14 16
3 4 8 14 13 2 4 7 8 11 5 9 13 22 14 11 13 19 23 23 24 21 16 8 6 8 8 8 7 7 8 8 8 6 5 8 13 12 11 15 15 15 16 18
2 7 9 12 14 15 22 21 20 15 20 13 20 15 14 11 11 17 19 21 23 19 14 12 10 10 10 10 10 8 6 6 9 10 10 9 12 13 15 18 17 17 19 20
1 4 2 11 12 18 23 20 21 23 24 21 24 21 8 12 16 17 16 15 16 16 13 12 12 12 12 13 12 11 10 8 8 9 10 10 15 15 15 17 19 19 20 20
5 4 2 16 5 8 12 14 17 14 7 6 6 6 10 11 12 13 14 15 14 12 12 12 13 14 14 13 12 12 12 11 11 10 10 13 16 16 17 18 21 21 21 18
7 5 3 10 4 10 2 14 12 16 13 13 10 11 11 11 12 15 17 15 14 13 13 13 13 14 13 13 13 13 13 13 12 12 13 16 18 19 20 20 21 20 19 18
18 11 4 5 8 11 7 6 6 4 6 11 11 11 15 15 9 17 18 15 13 13 13 14 14 16 16 16 16 16 14 14 15 16 16 17 19 20 21 20 20 19 19 20
1 15 7 3 5 6 5 8 13 7 2 13 13 13 15 16 3 3 19 15 14 14 15 17 16 16 17 17 18 17 16 16 16 16 18 19 21 21 21 21 21 21 21 22
3 2 12 12 6 3 8 17 12 4 2 7 8 9 11 4 6 12 14 15 16 18 18 17 19 18 18 20 21 20 18 17 17 19 21 21 20 21 21 22 23 23 22 22
4 4 4 3 5 6 17 5 4 1 6 6 7 8 9 9 10 13 15 17 17 18 20 20 19 20 21 18 20 21 21 20 20 21 23 23 22 22 23 24 25 25 25 25
4 2 0 2 2 6 12 16 9 6 2 6 8 9 11 12 14 15 18 19 19 20 21 20 20 23 22 18 18 21 22 24 24 25 25 24 24 24 24 25 28 28 27 26
3 7 2 4 4 7 11 10 8 6 7 8 7 9 11 14 15 18 19 21 20 21 22 20 23 25 23 22 22 23 25 24 25 27 28 26 27 27 25 25 26 28 27 27
3 7 3 4 6 10 7 6 6 6 6 8 8 9 11 14 16 17 20 21 21 22 21 24 24 24 25 27 28 26 26 25 27 28 28 28 28 28 27 25 25 25 26 26
6 2 1 2 3 1 5 3 6 9 10 10 11 14 13 15 17 19 21 21 23 23 27 27 26 30 32 31 30 29 27 26 27 29 30 30 27 28 29 28 30 27 25 24
Wind_Direction
170 285 249 58 39 345 315 292 284 292 94 328 252 272 275 269 220 205 210 223 213 221 223 228 236 232 227 233 238 242 249 250 266 290 320 308 323 346 356 3 5 11 15 17
215 241 83 80 329 283 279 269 284 352 147 319 298 295 284 252 243 203 207 216 228 213 203 213 228 232 223 227 232 237 244 249 250 261 263 264 286 302 315 327 341 349 353 352
274 101 120 227 266 260 274 279 356 297 321 279 309 276 165 134 323 241 187 213 221 221 203 212 225 231 221 225 227 232 236 243 245 246 246 244 250 272 288 311 322 326 334 340
262 113 224 262 263 206 292 32 350 310 353 298 84 285 291 145 198 185 202 213 221 216 214 218 228 225 220 222 226 230 230 237 241 249 256 256 254 267 284 283 286 299 316 328
248 183 209 250 266 95 301 344 268 277 291 303 244 150 267 149 162 192 195 194 204 207 209 219 229 226 222 222 224 225 228 231 235 244 252 254 256 261 263 272 286 297 304 315
267 108 256 333 30 223 337 293 254 187 195 293 213 160 283 183 154 116 31 189 188 202 209 219 230 225 221 223 222 225 229 232 236 241 247 255 262 261 264 267 275 286 298 310
169 196 124 163 262 141 237 316 320 335 297 231 150 250 238 236 157 110 114 8 177 197 212 215 220 220 222 227 225 226 231 237 241 246 252 257 259 261 261 265 270 279 288 297
250 300 179 167 256 84 284 166 193 277 286 283 134 238 252 124 101 91 92 87 139 189 221 218 225 231 231 234 232 233 238 242 247 252 253 256 257 261 266 270 273 279 282 283
306 225 121 188 81 141 131 208 343 300 267 271 225 249 337 124 117 137 153 171 246 244 230 228 234 242 246 248 250 249 250 253 256 257 257 257 258 265 272 275 275 275 278 282
335 301 155 107 159 233 202 351 252 201 285 273 253 284 217 114 128 131 151 237 249 232 228 211 208 212 222 246 261 257 257 255 257 256 255 256 259 260 267 272 272 273 277 283
341 197 170 132 200 183 149 228 206 311 205 250 313 273 138 143 109 88 354 344 354 239 204 202 221 225 230 229 244 258 257 254 256 255 252 253 256 257 270 265 265 270 279 287
186 296 262 237 95 73 43 262 178 160 207 238 273 255 56 112 111 29 33 30 20 74 145 164 184 273 287 264 240 236 250 241 242 254 241 250 272 274 257 263 268 271 278 288
186 232 301 291 117 54 38 330 230 137 225 225 247 262 171 104 51 40 27 16 7 117 106 83 91 55 317 306 291 260 248 241 235 246 263 277 277 264 264 265 268 271 279 289
336 254 227 256 265 14 222 236 229 216 217 261 231 265 273 14 35 29 23 22 85 86 88 72 12 348 340 336 319 287 276 272 274 288 279 250 248 255 259 262 270 272 281 289
277 253 253 266 284 291 276 275 262 235 241 241 265 255 293 46 53 31 27 45 58 49 30 16 10 1 351 343 333 324 307 281 257 258 258 258 267 265 261 261 271 279 285 289
311 273 294 271 258 260 267 264 261 252 254 242 254 265 32 53 51 37 31 31 35 32 30 17 8 3 359 352 342 334 323 308 294 274 261 252 250 267 270 277 280 283 287 287
186 206 210 276 263 315 279 253 248 252 49 324 260 45 21 31 55 43 38 35 31 18 11 1 358 353 350 343 336 330 321 314 307 299 281 264 267 270 275 279 283 288 289 284
200 185 199 279 290 264 146 40 76 99 50 25 41 35 25 12 91 60 36 24 10 1 357 351 348 341 336 329 325 320 318 314 306 292 281 279 281 282 282 282 284 285 284 283
225 221 232 243 234 280 243 32 21 30 64 28 15 15 5 344 144 54 24 13 3 352 343 344 336 330 329 325 325 321 318 307 299 296 293 288 288 288 287 285 285 284 281 279
7 225 212 213 241 248 45 342 333 296 155 22 17 12 359 359 20 42 356 353 349 345 341 335 330 328 324 322 319 317 316 311 308 301 295 293 289 286 285 285 282 280 278 278
145 224 228 235 261 107 335 312 311 197 49 33 30 16 1 15 358 328 334 336 338 339 331 329 327 328 323 321 322 320 315 312 307 301 300 297 293 291 287 284 281 280 281 282
200 208 202 201 232 235 344 55 58 8 25 19 32 1 345 339 332 331 334 337 334 330 328 328 324 319 319 322 320 317 316 313 301 296 294 294 291 288 285 284 284 285 283 279
213 325 318 45 39 107 58 91 91 68 46 356 354 0 339 336 336 334 327 327 329 326 324 327 321 319 323 321 312 309 308 306 305 302 298 297 294 290 286 284 286 287 285 282
98 3 85 149 135 113 102 85 72 46 20 357 350 337 337 328 332 323 324 326 326 324 325 323 316 316 316 314 308 303 302 300 297 295 297 296 293 294 291 287 285 285 284 283
340 332 59 80 95 118 92 63 42 25 354 333 341 324 322 322 325 320 318 322 321 321 322 318 317 314 309 310 311 312 311 308 302 300 300 298 297 297 297 292 290 286 281 276
0 21 328 126 88 355 101 22 358 351 341 337 340 333 333 327 321 320 321 320 321 321 313 315 312 309 312 314 313 311 308 305 300 296 297 299 296 292 290 289 288 284 278 276
Height
1508 1512 1509 1507 1508 1509 1510 1511 1509 1497 1499 1501 1496 1486 1477 1475 1475 1477 1481 1484 1486 1488 1492 1495 1496 1497 1499 1500 1501 1501 1502 1503 1503 1504 1504 1503 1503 1502 1503 1503 1502 1501 1500 1500
1510 1511 1506 1507 1509 1510 1509 1511 1504 1495 1497 1500 1491 1483 1470 1466 1468 1471 1475 1479 1483 1486 1488 1490 1491 1493 1494 1496 1498 1499 1500 1501 1501 1501 1502 1502 1501 1502 1501 1502 1501 1500 1500 1500
1510 1507 1507 1508 1507 1507 1504 1504 1503 1508 1501 1491 1493 1483 1467 1469 1470 1471 1473 1476 1480 1483 1484 1485 1487 1489 1492 1493 1494 1496 1497 1499 1499 1499 1500 1500 1500 1500 1500 1500 1500 1499 1499 1499
1506 1507 1507 1508 1508 1504 1511 1505 1506 1507 1511 1512 1492 1509 1467 1469 1471 1472 1472 1474 1476 1479 1481 1481 1483 1485 1487 1490 1492 1494 1494 1495 1496 1497 1498 1498 1497 1497 1499 1498 1497 1497 1497 1496
1504 1505 1507 1508 1503 1503 1504 1505 1506 1506 1511 1509 1492 1508 1474 1465 1467 1467 1467 1468 1471 1474 1477 1478 1479 1482 1485 1486 1488 1490 1492 1492 1492 1494 1494 1495 1495 1496 1495 1495 1496 1495 1494 1494
1503 1504 1505 1503 1503 1504 1504 1503 1498 1504 1508 1520 1487 1498 1488 1467 1464 1464 1465 1465 1467 1470 1473 1476 1478 1480 1481 1482 1485 1488 1488 1488 1489 1490 1491 1492 1493 1492 1493 1493 1492 1492 1492 1491
1501 1502 1503 1504 1505 1505 1506 1507 1519 1516 1523 1510 1488 1496 1480 1458 1461 1463 1465 1466 1468 1470 1473 1476 1477 1479 1480 1480 1482 1483 1485 1485 1486 1487 1488 1489 1490 1490 1490 1490 1490 1491 1491 1490
1508 1515 1502 1503 1502 1504 1503 1506 1520 1516 1508 1501 1491 1499 1473 1455 1461 1464 1466 1468 1469 1471 1472 1474 1476 1477 1477 1479 1480 1480 1482 1482 1483 1485 1486 1486 1485 1487 1487 1488 1488 1487 1487 1488
1501 1498 1499 1500 1501 1503 1506 1513 1504 1507 1497 1505 1486 1467 1456 1457 1463 1465 1466 1467 1468 1469 1472 1473 1474 1476 1478 1478 1479 1480 1480 1481 1482 1483 1483 1484 1484 1483 1485 1485 1485 1485 1485 1484
1498 1507 1494 1503 1503 1503 1504 1505 1509 1511 1518 1500 1474 1468 1467 1462 1463 1464 1465 1465 1466 1468 1470 1473 1476 1477 1478 1478 1477 1476 1477 1477 1478 1478 1477 1477 1479 1479 1481 1482 1482 1482 1482 1481
1500 1503 1502 1501 1502 1499 1509 1507 1505 1505 1511 1507 1500 1478 1456 1459 1460 1463 1465 1465 1464 1464 1466 1470 1472 1474 1475 1476 1477 1475 1474 1475 1475 1476 1476 1476 1476 1475 1477 1478 1478 1478 1478 1478
1498 1500 1502 1490 1490 1489 1492 1493 1495 1507 1503 1503 1500 1478 1453 1457 1461 1467 1468 1466 1466 1464 1466 1468 1471 1473 1474 1474 1475 1475 1475 1475 1474 1474 1474 1472 1474 1471 1472 1473 1473 1474 1474 1474
1496 1499 1505 1493 1495 1492 1494 1492 1493 1499 1509 1498 1492 1473 1454 1459 1469 1471 1470 1468 1467 1465 1467 1471 1472 1472 1473 1473 1473 1473 1472 1472 1471 1469 1469 1469 1470 1470 1469 1468 1469 1469 1469 1469
1499 1494 1491 1489 1480 1484 1497 1497 1494 1497 1495 1482 1478 1462 1461 1466 1471 1475 1474 1471 1469 1469 1470 1472 1474 1474 1474 1474 1473 1471 1470 1469 1468 1467 1467 1468 1468 1467 1466 1465 1465 1465 1464 1465
1501 1499 1489 1483 1482 1482 1479 1479 1480 1483 1478 1479 1457 1464 1462 1477 1480 1481 1479 1478 1475 1475 1475 1475 1474 1474 1474 1473 1471 1470 1467 1466 1466 1465 1465 1464 1464 1463 1464 1463 1462 1461 1460 1459
1502 1498 1497 1484 1485 1482 1473 1471 1468 1465 1459 1463 1463 1462 1478 1480 1480 1482 1483 1481 1479 1478 1479 1479 1478 1476 1474 1473 1472 1470 1468 1465 1464 1463 1461 1460 1459 1457 1458 1460 1460 1457 1456 1455
1498 1498 1496 1473 1475 1478 1467 1456 1452 1447 1462 1464 1455 1483 1484 1481 1484 1487 1486 1485 1484 1484 1481 1480 1477 1476 1474 1473 1471 1469 1467 1465 1463 1462 1461 1460 1458 1457 1455 1452 1454 1453 1452 1450
1486 1490 1489 1473 1477 1467 1452 1457 1457 1470 1483 1484 1483 1486 1486 1486 1487 1487 1486 1487 1485 1484 1481 1479 1476 1475 1473 1471 1469 1467 1464 1462 1460 1459 1458 1457 1455 1452 1450 1449 1449 1447 1446 1446
1470 1475 1478 1472 1465 1448 1448 1468 1472 1469 1489 1491 1490 1488 1488 1484 1485 1486 1486 1485 1486 1485 1482 1477 1476 1475 1471 1469 1466 1464 1461 1459 1457 1456 1454 1452 1451 1448 1447 1445 1444 1443 1441 1440
1461 1461 1470 1467 1461 1452 1476 1478 1480 1478 1480 1494 1493 1493 1490 1485 1483 1489 1487 1486 1484 1483 1479 1477 1474 1472 1469 1467 1465 1461 1458 1456 1454 1451 1450 1448 1446 1444 1442 1440 1439 1438 1436 1435
1465 1466 1458 1453 1447 1464 1489 1482 1478 1466 1492 1496 1495 1496 1495 1491 1493 1490 1487 1486 1483 1480 1479 1475 1471 1469 1467 1465 1462 1458 1455 1452 1450 1447 1445 1443 1441 1439 1437 1435 1434 1432 1431 1429
1457 1458 1456 1454 1450 1448 1484 1479 1479 1499 1499 1499 1493 1496 1496 1492 1490 1488 1485 1481 1479 1478 1474 1472 1469 1466 1464 1461 1458 1454 1451 1448 1445 1442 1440 1439 1436 1434 1432 1430 1427 1426 1425 1423
1452 1468 1464 1477 1481 1492 1489 1488 1493 1495 1497 1498 1495 1491 1494 1491 1488 1485 1483 1480 1476 1474 1471 1469 1466 1462 1460 1457 1455 1450 1446 1443 1440 1437 1435 1432 1430 1428 1426 1424 1421 1419 1418 1416
1471 1475 1475 1480 1493 1492 1491 1492 1493 1495 1495 1495 1494 1493 1491 1489 1485 1484 1481 1477 1473 1471 1467 1465 1461 1458 1454 1452 1449 1445 1441 1438 1434 1431 1428 1426 1423 1421 1419 1417 1415 1412 1411 1409
1483 1478 1478 1489 1493 1494 1494 1494 1493 1493 1494 1494 1492 1490 1488 1484 1482 1480 1478 1474 1471 1467 1464 1460 1456 1453 1449 1445 1442 1438 1435 1431 1428 1425 1422 1419 1417 1414 1411 1409 1407 1406 1404 1403
1487 1488 1485 1488 1493 1493 1494 1492 1492 1492 1492 1491 1488 1485 1484 1482 1479 1477 1474 1471 1467 1463 1459 1455 1452 1448 1443 1438 1435 1432 1429 1425 1422 1418 1415 1412 1410 1407 1405 1402 1399 1399 1398 1397